Location: Unspecified
(50.7693°N, 0.0000°E)
Time: 19:56:57
(UTC+00:00)

Transit 2A Rocket - Pass Details

Date: 29 October 2019
Orbit: 594 x 909 km, 66.7° (Epoch: 18 November)

Event Time Altitude Azimuth Distance (km) Brightness Sun altitude
Exits shadow 05:42:55 11° 305° (NW) 1,964 6.6 -10.4°
Maximum altitude 05:45:13 15° 337° (NNW) 1,692 6.5 -10.1°
Drops below altitude 10° 05:47:51 10° 13° (NNE) 1,982 7.2 -9.7°
Sets 05:50:57 0° 37° (NE) 2,861 8.4 -9.2°
